STARLINK-5658, 55338

Orbit data source: Space-Track

STARLINK-5658, 55338 is a payload satellite owned by SpaceX/Seattle (US) in LEO that was launched on Thu, 26 Jan 2023 UTC via an FALCON 9 launch vehicle from the Air Force Eastern Test Range (AFETR). Payload-class satellites include a variety of spacecraft equipped with specific instruments for various scientific and technological missions. These include communications satellites like Starlink; space stations such as the ISS; scientific satellites like the Hubble; Earth observation satellites from companies like Planet Labs, Umbra, and HawkEye 360; GPS; miniature CubeSats for education and research; and military/defense satellites.

Loading next visibility...
Identifier
55338, 2023-013H
Orbit
LEO
Country
Flag of USUS
Related business
Manufacturer
SpaceX/Seattle
Mission
Operational Commercial Communications
Bus & Motor
STARLINK, Unknown motor
Mass
305 kg wet, ~290 kg dry
Launch date (UTC)
2023-01-26 (3 years ago)
Launch vehicle
FALCON 9
Launch site
Air Force Eastern Test Range (AFETR)
Object type
Payload
Rocket body
Debris
Shape & HBR
Box + 1 Pan, 10.1 m
Radar Cross Section
13.562 m², Large (>1 m²)

Expand to show TLE details & history
Last TLE update: 1 day ago

TLE from 1 day ago
0 STARLINK-5658
1 55338U 23013H   25348.44702722 -.00001056  00000-0 -63123-4 0  9996
2 55338  43.0055  43.7805 0001582 264.5036  95.5626 15.02534321158881
Epoch: 2025-12-14T10:43Z
TLE epoch observation values (Epoch: 2025-12-14T10:43:43.151Z)
Latitude
-0.00003°
Longitude
159.49086°
Altitude
558.97 km
Speed
7.584 km/s
True Right ascension
02h 55m 07s
True Declination
0° 00' 00"
Sunlit
Object was in full shadow at epoch
Visualization orbit readout
Latitude
Unknown
Longitude
Unknown
Altitude
Unknown
Speed
Unknown
Apparent Right ascension
Unknown
Apparent Declination
Unknown
Sunlit
N/A
Visualization observer readout
Local Sidereal Time
13:19:53
Azimuth
Unknown
Elevation
Unknown
Doppler factor
Unknown
Orbital elements
Apogee altitude
562.105 km
Perigee altitude
559.91 km
Semi-major axis
6,939.145 km
Eccentricity
0.00016
Inclination
43.0055°
RAAN
43.7805°
Arg. of periapsis
264.5036°
True anomaly
95.58064°
Mean anomaly
95.5626°
Eccentric anomaly
95.57162°
Mean motion
3.75478 °/min
Orbital period
95.88 mins
BSTAR
-0.000063123
Loading maneuver chart data...
Computing Atmospheric mass density...
Loading historical data...
Loading historical data...
Loading historical data...
Loading historical data...
Loading historical data...
Loading historical data...
Loading historical data...

Documentation

Showing up to 5 results
|